West Palm Beach, FL

12:50 AM EST on November 19, 2019 (GMT -0500)
Palm Beach International

Weather History for KPBI - September, 2019

Change the Weather History Date:

Saturday, September 14, 2019

  Actual Average Record
Temperature  
Mean Temperature 84 °F 82 °F  
Max Temperature 88 °F 89 °F 95 °F (1961)
Min Temperature 79 °F 75 °F 67 °F (1939)
Degree Days  
Heating Degree Days 0 0  
Month to date heating degree days 0 0  
Since 1 July heating degree days 0 0  
Cooling Degree Days 19 17  
Month to date cooling degree days 267 238  
Year to date cooling degree days 3433 2944  
Growing Degree Days 34 (Base 50)    
Moisture  
Dew Point 75 °F    
Average Humidity 77    
Maximum Humidity 91    
Minimum Humidity 63    
Precipitation  
Precipitation 0.01 in 0.29 in 2.85 in (1979)
Month to date precipitation 1.25 3.92  
Year to date precipitation 45.21 44.64  
Snow  
Snow 0.00 in - - ()
Month to date snowfall 0.0  
Since 1 July snowfall 0.0  
Since 1 September snowfall 0.0  
Snow Depth 0.00 in    
Sea Level Pressure  
Sea Level Pressure 29.93 in    
Wind  
Wind Speed 13 mph (NE)    
Max Wind Speed 22 mph    
Max Gust Speed 30 mph    
Visibility 10 miles    
Events Rain    
T = Trace of Precipitation, MM = Missing Value Source: NWS Daily Summary

Daily Weather History Graph

Daily Weather History Graph

Search for Another Location

Airport or City:

Astronomy

Sep. 14, 2019 Rise Set
Actual Time 7:05 AM EDT 7:26 PM EDT
Civil Twilight 6:42 AM EDT 7:49 PM EDT
Nautical Twilight 6:15 AM EDT 8:16 PM EDT
Astronomical Twilight 5:47 AM EDT 8:43 PM EDT
Moon 8:05 PM EDT (9/14) 7:21 AM EDT (9/14)
Length of Visible Light 13h 07m
Length of Day
12h 20m
Full, 100% of the Moon is Illuminated
Sep 14
Full
Sep 21
Last Quarter
Sep 28
New
Oct 5
First Quarter
Oct 13
Full

Hourly Weather History & Observations

Time (EDT) Temp. Heat Index Dew Point Humidity Pressure Visibility Wind Dir Wind Speed Gust Speed Precip Events Conditions
12:53 AM 82.9 °F 88.8 °F 73.0 °F 72% 29.95 in 10.0 mi ENE 17.3 mph - N/A   Mostly Cloudy
1:53 AM 81.0 °F 85.2 °F 72.0 °F 74% 29.94 in 10.0 mi NE 11.5 mph 21.9 mph N/A   Mostly Cloudy
2:53 AM 82.9 °F 88.8 °F 73.0 °F 72% 29.93 in 10.0 mi ENE 15.0 mph - N/A   Mostly Cloudy
3:53 AM 81.0 °F 86.7 °F 75.0 °F 82% 29.91 in 7.0 mi ESE 13.8 mph 23.0 mph 0.01 in Rain Light Rain
4:53 AM 81.0 °F 86.2 °F 73.9 °F 79% 29.91 in 10.0 mi NE 11.5 mph - 0.00 in   Mostly Cloudy
5:53 AM 82.0 °F 88.6 °F 75.0 °F 79% 29.91 in 10.0 mi NE 13.8 mph - N/A   Mostly Cloudy
6:53 AM 82.0 °F 88.6 °F 75.0 °F 79% 29.91 in 10.0 mi NNE 12.7 mph - 0.00 in   Mostly Cloudy
7:53 AM 82.0 °F 88.6 °F 75.0 °F 79% 29.92 in 10.0 mi NNE 11.5 mph - N/A   Mostly Cloudy
8:53 AM 82.9 °F 90.2 °F 75.0 °F 77% 29.93 in 10.0 mi NNE 15.0 mph 20.7 mph N/A   Mostly Cloudy
9:53 AM 84.0 °F 92.6 °F 75.9 °F 76% 29.94 in 10.0 mi NE 12.7 mph - 0.00 in   Mostly Cloudy
10:53 AM 86.0 °F 96.0 °F 75.9 °F 72% 29.96 in 10.0 mi NNE 16.1 mph - N/A   Mostly Cloudy
11:53 AM 86.0 °F 95.1 °F 75.0 °F 70% 29.95 in 10.0 mi ENE 16.1 mph 24.2 mph N/A   Mostly Cloudy
12:53 PM 87.1 °F 97.3 °F 75.9 °F 69% 29.94 in 10.0 mi NE 20.7 mph - N/A   Mostly Cloudy
1:53 PM 88.0 °F 98.5 °F 75.9 °F 67% 29.93 in 10.0 mi NE 15.0 mph - N/A   Mostly Cloudy
2:53 PM 86.0 °F 95.1 °F 75.0 °F 70% 29.91 in 10.0 mi ENE 18.4 mph - 0.00 in   Mostly Cloudy
3:53 PM 87.1 °F 95.4 °F 73.9 °F 65% 29.90 in 10.0 mi NE 17.3 mph 23.0 mph N/A   Mostly Cloudy
4:53 PM 86.0 °F 95.1 °F 75.0 °F 70% 29.89 in 10.0 mi NE 13.8 mph - N/A   Mostly Cloudy
5:53 PM 86.0 °F 93.8 °F 73.9 °F 67% 29.88 in 10.0 mi NE 17.3 mph - N/A   Mostly Cloudy
6:53 PM 84.0 °F 91.2 °F 73.9 °F 72% 29.91 in 10.0 mi NE 15.0 mph 19.6 mph N/A   Mostly Cloudy
7:53 PM 82.9 °F 88.8 °F 73.0 °F 72% 29.92 in 10.0 mi ENE 12.7 mph - N/A   Mostly Cloudy
8:53 PM 82.9 °F 89.4 °F 73.9 °F 74% 29.94 in 10.0 mi NNE 5.8 mph - N/A   Mostly Cloudy
9:53 PM 80.1 °F 85.1 °F 75.0 °F 85% 29.94 in 10.0 mi NNW 4.6 mph - N/A   Mostly Cloudy
10:53 PM 79.0 °F - 75.0 °F 88% 29.95 in 10.0 mi NW 4.6 mph - N/A   Mostly Cloudy
11:53 PM 79.0 °F - 75.0 °F 88% 29.93 in 10.0 mi WNW 6.9 mph - N/A   Mostly Cloudy